Location: Sweet Grass
(48.9965°N, 111.9649°W)
Time: 18:05:38
(UTC+00:00)

DX 1 - Pass Details

Date: 03 April 2023
Orbit: 615 x 625 km, 98.4° (Epoch: 04 June)

Event Time Altitude Azimuth Distance (km) Brightness Sun altitude
Rises 05:51:24 0° 15° (NNE) 2,899 ? -31.6°
Reaches altitude 10° 05:53:36 10° 17° (NNE) 1,989 ? -31.7°
Enters shadow 05:54:57 20° 19° (NNE) 1,447 ? -31.9°
